Latest Weather Observations for Viewbank

IDV60901

Issued at 11:41 am EST Wednesday 27 May 2015 (issued every 10 minutes, with the page automatically refreshed every 10 minutes)

About weather observations | Map of Melbourne area stations | Latest observations for Melbourne area | Other Formats
Station Details ID: 086068 Name: VIEWBANK Lat: -37.74 Lon: 145.10 Height: 66.1 m
Data from the previous 72 hours. | See also: Recent months at Viewbank
Date/Time
EST
Tmp

°C
App
Tmp
°C
Dew
Point
°C
Rel
Hum
%
Delta-T

°C
Wind Press
QNH
hPa
Press
MSL
hPa
Rain
since
9 am
mm
Dir
 
Spd
km/h
Gust
km/h
Spd
kts
Gust
kts
27/11:30am 15.3 12.1 8.5 64 3.4 N 15 28 8 15 1020.3 1020.3 0.0
27/11:00am 15.2 13.6 8.7 65 3.3 NE 7 11 4 6 1021.0 1021.0 0.0
27/10:30am 15.0 13.4 8.9 67 3.1 NE 7 11 4 6 1021.1 1021.1 0.0
27/10:00am 14.2 12.5 8.4 68 2.9 NE 7 11 4 6 1021.0 1021.0 0.0
27/09:30am 13.8 11.7 8.2 69 2.8 NE 9 15 5 8 1021.0 1021.0 0.0
27/09:00am 13.0 11.1 7.7 70 2.6 NE 7 13 4 7 1021.1 1021.1 0.2
27/08:30am 12.6 10.7 7.5 71 2.5 NE 7 15 4 8 1020.9 1020.9 0.2
27/08:00am 12.4 10.5 7.5 72 2.4 NE 7 13 4 7 1020.9 1020.9 0.2
27/07:30am 11.8 10.1 7.5 75 2.1 NE 6 9 3 5 1021.0 1021.0 0.2
27/07:00am 10.7 9.1 8.1 84 1.3 ENE 6 9 3 5 1020.6 1020.6 0.2
27/06:30am 10.1 9.4 8.5 90 0.8 NE 2 7 1 4 1020.6 1020.6 0.2
27/06:00am 10.3 8.9 8.9 91 0.7 ENE 6 11 3 6 1020.7 1020.7 0.2
27/05:30am 10.3 8.5 8.1 86 1.1 E 7 11 4 6 1020.9 1020.9 0.2
27/05:00am 9.4 7.6 7.3 87 1.0 E 6 7 3 4 1021.1 1021.1 0.0
27/04:30am 9.6 8.0 8.0 90 0.8 E 6 9 3 5 1021.0 1021.0 0.0
27/04:00am 9.6 8.0 7.9 89 0.8 ENE 6 7 3 4 1021.1 1021.1 0.0
27/03:30am 8.8 8.3 7.9 94 0.4 CALM 0 0 0 0 1021.2 1021.2 0.0
27/03:00am 8.0 6.7 7.7 98 0.1 NE 4 6 2 3 1021.6 1021.6 0.0
27/02:30am 8.0 7.4 7.2 95 0.4 CALM 0 0 0 0 1022.1 1022.1 0.0
27/02:00am 9.1 7.2 7.5 90 0.8 ENE 7 9 4 5 1022.3 1022.3 0.0
27/01:30am 8.6 6.7 7.7 94 0.4 ENE 7 9 4 5 1022.2 1022.2 0.0
27/01:00am 8.3 6.7 7.9 97 0.2 ENE 6 7 3 4 1022.7 1022.7 0.0
27/12:30am 8.5 6.9 8.1 97 0.2 ENE 6 9 3 5 1023.0 1023.0 0.0
27/12:00am 8.0 6.2 7.9 99 0.0 ENE 7 11 4 6 1023.4 1023.4 0.0
 
Date/Time
EST
Tmp

°C
App
Tmp
°C
Dew
Point
°C
Rel
Hum
%
Delta-T

°C
Wind Press
QNH
hPa
Press
MSL
hPa
Rain
since
9 am
mm
Dir
 
Spd
km/h
Gust
km/h
Spd
kts
Gust
kts
26/11:30pm 8.1 6.5 8.0 99 0.0 ENE 6 9 3 5 1023.8 1023.9 0.0
26/11:00pm 8.2 6.5 7.4 95 0.4 ENE 6 9 3 5 1023.8 1023.9 0.0
26/10:30pm 9.1 7.9 8.2 94 0.4 ENE 4 9 2 5 1023.9 1024.0 0.0
26/10:00pm 9.2 7.7 8.3 94 0.4 ENE 6 9 3 5 1024.1 1024.2 0.0
26/09:30pm 9.9 8.7 8.2 89 0.8 ENE 4 7 2 4 1024.2 1024.3 0.0
26/09:00pm 10.2 7.7 8.3 88 0.9 ENE 11 13 6 7 1024.2 1024.3 0.0
26/08:30pm 10.8 10.0 8.0 83 1.4 NE 2 7 1 4 1024.3 1024.4 0.0
26/08:00pm 11.1 10.0 8.3 83 1.4 NE 4 7 2 4 1024.4 1024.5 0.0
26/07:30pm 11.8 10.2 8.1 78 1.8 NE 6 9 3 5 1024.7 1024.8 0.0
26/07:00pm 11.9 10.4 8.4 79 1.7 NE 6 11 3 6 1025.1 1025.2 0.0
26/06:30pm 12.2 10.7 8.5 78 1.8 N 6 7 3 4 1025.1 1025.2 0.0
26/06:00pm 12.8 11.7 8.5 75 2.1 N 4 7 2 4 1025.1 1025.2 0.0
26/05:30pm 13.2 11.6 8.7 74 2.3 ENE 7 11 4 6 1024.7 1024.8 0.0
26/05:00pm 13.6 11.6 8.7 72 2.5 ENE 9 15 5 8 1024.6 1024.7 0.0
26/04:30pm 13.9 13.3 9.1 73 2.4 N 2 6 1 3 1025.2 1025.3 0.0
26/04:00pm 13.6 12.9 10.0 79 1.9 ENE 4 9 2 5 1025.4 1025.5 0.0
26/03:30pm 13.8 13.0 9.8 77 2.1 E 4 6 2 3 1025.5 1025.6 0.0
26/03:00pm 13.9 12.7 9.5 75 2.2 E 6 9 3 5 1025.3 1025.4 0.0
26/02:30pm 14.1 13.2 9.1 72 2.6 E 4 6 2 3 1025.6 1025.7 0.0
26/02:00pm 14.0 12.6 9.0 72 2.5 ENE 6 7 3 4 1026.1 1026.2 0.0
26/01:30pm 14.0 12.3 8.4 69 2.8 E 7 9 4 5 1026.3 1026.4 0.0
26/01:00pm 14.0 12.5 8.4 69 2.8 ESE 6 7 3 4 1026.8 1026.9 0.0
26/12:30pm 13.6 12.0 8.0 69 2.8 E 6 9 3 5 1026.9 1027.0 0.0
26/12:00pm 13.2 11.6 7.9 70 2.6 ENE 6 9 3 5 1027.6 1027.7 0.0
26/11:30am 11.6 9.7 7.7 77 1.9 E 7 9 4 5 1028.2 1028.2 0.0
26/11:00am 10.0 8.1 6.9 81 1.5 E 6 11 3 6 1029.0 1029.0 0.0
26/10:30am 9.8 7.9 6.9 82 1.4 ENE 6 7 3 4 1029.6 1029.6 0.0
26/10:00am 7.9 5.8 6.7 92 0.5 ENE 7 9 4 5 1029.7 1029.7 0.0
26/09:30am 6.4 3.5 6.3 99 0.0 ENE 11 13 6 7 1029.8 1029.8 0.0
26/09:00am 4.8 1.9 4.7 99 0.0 ENE 9 11 5 6 1029.8 1029.8 0.0
26/08:30am 3.9 1.4 3.9 100 0.0 ENE 6 7 3 4 1030.0 1030.0 0.0
26/08:00am 2.8 0.5 2.8 100 0.0 NE 4 7 2 4 1029.9 1029.9 0.0
26/07:30am 2.6 0.7 2.6 100 0.0 NNE 2 7 1 4 1029.9 1029.9 0.0
26/07:00am 2.6 0.7 2.6 100 0.0 NE 2 6 1 3 1029.5 1029.5 0.0
26/06:30am 3.1 -0.1 3.1 100 0.0 ENE 9 13 5 7 1029.4 1029.4 0.0
26/06:00am 2.7 0.0 2.7 100 0.0 ENE 6 9 3 5 1029.3 1029.3 0.0
26/05:30am 3.3 0.7 3.3 100 0.0 ENE 6 7 3 4 1029.4 1029.4 0.0
26/05:00am 3.4 0.3 3.4 100 0.0 ENE 9 11 5 6 1029.2 1029.2 0.0
26/04:30am 3.0 0.3 2.9 99 0.0 NE 6 7 3 4 1029.3 1029.3 0.0
26/04:00am 3.8 1.1 3.7 99 0.0 NE 7 11 4 6 1029.4 1029.4 0.0
26/03:30am 4.2 2.5 4.1 99 0.0 NE 2 6 1 3 1029.4 1029.4 0.0
26/03:00am 4.5 2.9 4.4 99 0.0 NE 2 7 1 4 1029.5 1029.5 0.0
26/02:30am 4.7 2.7 4.6 99 0.0 NE 4 7 2 4 1029.7 1029.7 0.0
26/02:00am 4.8 3.2 4.7 99 0.0 NNE 2 7 1 4 1029.7 1029.7 0.0
26/01:30am 5.2 3.7 5.1 99 0.0 NE 2 6 1 3 1029.6 1029.6 0.0
26/01:00am 5.3 3.8 5.2 99 0.0 NE 2 6 1 3 1029.8 1029.8 0.0
26/12:30am 5.7 4.7 5.6 99 0.0 CALM 0 0 0 0 1030.1 1030.1 0.0
26/12:00am 6.1 4.0 6.0 99 0.0 ENE 6 7 3 4 1030.0 1030.0 0.0
 
Date/Time
EST
Tmp

°C
App
Tmp
°C
Dew
Point
°C
Rel
Hum
%
Delta-T

°C
Wind Press
QNH
hPa
Press
MSL
hPa
Rain
since
9 am
mm
Dir
 
Spd
km/h
Gust
km/h
Spd
kts
Gust
kts
25/11:30pm 6.4 5.6 6.3 99 0.0 CALM 0 6 0 3 1030.0 1030.0 0.0
25/11:00pm 6.9 4.5 6.8 99 0.0 ENE 9 11 5 6 1030.2 1030.2 0.0
25/10:30pm 7.2 4.8 7.1 99 0.0 ENE 9 11 5 6 1030.3 1030.3 0.0
25/10:00pm 7.6 5.3 7.5 99 0.0 ENE 9 11 5 6 1030.5 1030.5 0.0
25/09:30pm 8.1 6.4 7.7 97 0.2 ENE 6 7 3 4 1030.5 1030.5 0.0
25/09:00pm 8.4 5.7 7.5 94 0.4 ENE 11 15 6 8 1030.5 1030.5 0.0
25/08:30pm 8.7 6.5 7.8 94 0.4 ENE 9 13 5 7 1030.4 1030.4 0.0
25/08:00pm 9.2 7.1 8.1 93 0.5 ENE 9 11 5 6 1030.3 1030.3 0.0
25/07:30pm 9.8 8.0 7.9 88 0.9 ENE 7 9 4 5 1030.2 1030.2 0.0
25/07:00pm 10.6 9.3 7.7 82 1.4 ENE 4 7 2 4 1030.0 1030.0 0.0
25/06:30pm 11.2 9.4 7.3 77 1.9 NE 6 7 3 4 1029.6 1029.6 0.0
25/06:00pm 11.9 9.5 7.2 73 2.3 ENE 9 11 5 6 1029.2 1029.2 0.0
25/05:30pm 12.8 10.8 7.0 68 2.8 ENE 7 9 4 5 1028.9 1028.9 0.0
25/05:00pm 13.5 12.0 6.8 64 3.2 ENE 4 7 2 4 1028.9 1028.9 0.0
25/04:30pm 14.6 13.1 6.9 60 3.8 ENE 4 7 2 4 1028.9 1028.9 0.0
25/04:00pm 15.0 13.6 7.1 59 3.9 NE 4 11 2 6 1028.9 1028.9 0.0
25/03:30pm 15.0 12.6 6.8 58 4.0 N 9 15 5 8 1029.0 1029.0 0.0
25/03:00pm 15.1 12.6 6.4 56 4.2 N 9 15 5 8 1028.9 1028.9 0.0
25/02:30pm 15.8 13.7 6.5 54 4.5 NNE 7 11 4 6 1029.3 1029.3 0.0
25/02:00pm 15.5 13.1 6.8 56 4.2 N 9 15 5 8 1029.5 1029.5 0.0
25/01:30pm 15.0 11.8 6.8 58 4.0 N 13 20 7 11 1029.8 1029.8 0.0
25/01:00pm 14.1 11.6 6.5 60 3.6 NNE 9 17 5 9 1030.1 1030.1 0.0
25/12:30pm 13.4 11.3 6.7 64 3.2 N 7 11 4 6 1030.4 1030.4 0.0
25/12:00pm 13.7 12.9 8.3 70 2.7 NE 2 6 1 3 1030.8 1030.8 0.0
25/11:30am 12.5 11.1 8.8 78 1.9 ENE 6 9 3 5 1031.2 1031.2 0.0
25/11:00am 11.3 9.7 8.0 80 1.6 ENE 6 7 3 4 1031.7 1031.7 0.0
25/10:30am 10.3 8.6 7.4 82 1.4 ENE 6 7 3 4 1031.9 1031.9 0.0
25/10:00am 9.3 7.5 7.1 86 1.0 ENE 6 7 3 4 1031.6 1031.6 0.0
25/09:30am 8.4 6.2 6.4 87 0.9 ENE 7 9 4 5 1031.7 1031.7 0.0
25/09:00am 8.0 5.4 6.3 89 0.8 E 9 9 5 5 1031.8 1031.8 0.0
25/08:30am 7.3 5.1 6.4 94 0.4 ENE 7 11 4 6 1031.8 1031.8 0.0
25/08:00am 7.0 5.8 6.4 96 0.3 ENE 2 7 1 4 1031.5 1031.5 0.0
25/07:30am 6.8 4.9 6.5 98 0.1 ENE 6 9 3 5 1031.2 1031.2 0.0
25/07:00am 6.8 5.2 6.4 97 0.2 ENE 4 7 2 4 1031.6 1031.6 0.0
25/06:30am 6.7 4.7 6.1 96 0.3 ENE 6 7 3 4 1031.2 1031.2 0.0
25/06:00am 6.9 5.3 6.2 95 0.3 NNE 4 7 2 4 1031.0 1031.0 0.0
25/05:30am 7.3 5.2 5.9 91 0.6 NE 6 9 3 5 1030.7 1030.7 0.0
25/05:00am 7.0 4.4 5.9 93 0.5 ENE 9 11 5 6 1029.8 1029.8 0.0
25/04:30am 7.1 4.5 6.0 93 0.5 ENE 9 13 5 7 1030.2 1030.2 0.0
25/04:00am 7.1 4.1 6.2 94 0.4 E 11 15 6 8 1030.2 1030.2 0.0
25/03:30am 6.4 4.2 6.0 97 0.2 ENE 7 11 4 6 1030.3 1030.3 0.0
25/03:00am 6.2 3.9 5.9 98 0.1 ENE 7 9 4 5 1030.4 1030.4 0.0
25/02:30am 6.4 5.1 6.1 98 0.1 ENE 2 7 1 4 1030.8 1030.8 0.0
25/02:00am 6.6 5.6 5.6 93 0.4 CALM 0 0 0 0 1030.9 1030.9 0.0
25/01:30am 6.6 4.4 5.4 92 0.5 ENE 6 9 3 5 1030.7 1030.7 0.0
25/01:00am 6.7 4.3 5.2 90 0.7 NE 7 9 4 5 1030.6 1030.6 0.0
25/12:30am 6.8 5.7 5.1 89 0.7 CALM 0 6 0 3 1031.1 1031.1 0.0
25/12:00am 7.8 6.6 4.6 80 1.4 CALM 0 0 0 0 1031.1 1031.1 0.0
 
Date/Time
EST
Tmp

°C
App
Tmp
°C
Dew
Point
°C
Rel
Hum
%
Delta-T

°C
Wind Press
QNH
hPa
Press
MSL
hPa
Rain
since
9 am
mm
Dir
 
Spd
km/h
Gust
km/h
Spd
kts
Gust
kts
24/11:30pm 7.7 6.2 4.8 82 1.3 NE 2 7 1 4 1031.1 1031.1 0.0
24/11:00pm 8.3 7.2 4.9 79 1.5 CALM 0 4 0 2 1031.3 1031.3 0.0
24/10:30pm 8.7 7.6 4.9 77 1.7 CALM 0 0 0 0 1031.4 1031.4 0.0
24/10:00pm 9.6 7.3 5.0 73 2.1 NE 6 7 3 4 1031.2 1031.2 0.0
24/09:30pm 10.5 7.7 5.1 69 2.5 N 9 15 5 8 1031.0 1031.0 0.0
24/09:00pm 10.9 7.6 4.8 66 2.7 N 11 19 6 10 1031.0 1031.0 0.0
24/08:30pm 11.8 7.8 5.0 63 3.1 NNW 15 24 8 13 1031.1 1031.1 0.0
24/08:00pm 11.7 8.1 5.1 64 3.0 NNW 13 19 7 10 1030.9 1030.9 0.0
24/07:30pm 11.8 8.5 4.8 62 3.2 N 11 19 6 10 1030.8 1030.8 0.0
24/07:00pm 11.8 9.1 3.8 58 3.5 N 7 13 4 7 1030.6 1030.6 0.0
24/06:30pm 12.0 9.8 3.5 56 3.8 NNE 4 13 2 7 1030.2 1030.2 0.0
24/06:00pm 12.2 9.5 3.9 57 3.7 NNE 7 11 4 6 1029.9 1029.9 0.0
24/05:30pm 13.0 10.4 4.4 56 3.9 N 7 13 4 7 1029.8 1029.8 0.0
24/05:00pm 13.5 10.7 5.2 57 3.9 N 9 17 5 9 1029.7 1029.7 0.0
24/04:30pm 14.5 11.6 4.5 51 4.6 N 9 15 5 8 1029.9 1029.9 0.0
24/04:00pm 15.2 12.1 3.4 45 5.3 N 9 17 5 9 1029.9 1029.9 0.0
24/03:30pm 15.5 12.6 4.5 48 5.2 N 9 17 5 9 1029.7 1029.7 0.0
24/03:00pm 16.6 14.5 6.7 52 4.9 NNE 7 13 4 7 1029.5 1029.5 0.0
24/02:30pm 15.9 14.0 7.7 58 4.1 ENE 7 11 4 6 1029.3 1029.3 0.0
24/02:00pm 14.9 12.7 7.7 62 3.6 ENE 9 13 5 7 1029.4 1029.4 0.0
24/01:30pm 14.3 12.5 8.0 66 3.1 ESE 7 11 4 6 1029.6 1029.6 0.0
24/01:00pm 12.8 10.5 7.3 69 2.7 E 9 13 5 7 1030.0 1030.0 0.0
24/12:30pm 12.6 10.5 8.3 75 2.1 ENE 9 13 5 7 1030.4 1030.4 0.0
24/12:00pm 11.0 9.3 8.4 84 1.3 E 7 11 4 6 1030.9 1030.9 0.0

Latest Capital City Observations: Canberra | Sydney | Melbourne | Brisbane | Adelaide | Perth | Hobart | Darwin

Other Formats:

Comma delimited format used in spreadsheet applications
http://www.bom.gov.au/fwo/IDV60901/IDV60901.95874.axf

JavaScript Object Notation format (JSON) in row-major order
http://www.bom.gov.au/fwo/IDV60901/IDV60901.95874.json